Flag for Canada Weather past 2 weeks in Rae-Edzo, Northwest Territories, Canada

Now
-21 °F

Extremely cold.


Feels Like: -21 °F
Forecast: -23 / -17 °F
Wind: 2 mph from East

Location: Lac La Martre

Current Time: Dec 27, 2014 at 11:05:12 AM

Latest Report: Dec 27, 2014 at 10:00 AM


Visibility: N/A

Pressure: 30.33 "Hg

Humidity: 74%

Dew point: -27 °F

Location of Rae-EdzoLocation

Historic Weather in Rae-Edzo — Graph

°F

Rae-Edzo temperature yesterday

Maximum temperature yesterday: -30 °F (at 9:00 PM)
Minimum temperature yesterday: -38 °F (at 1:00 AM)
Average temperature yesterday: -34 °F

Past Weeks' High & Low Weather Summary

 TemperatureHumidityPressure
High13 °F (Dec 20, 4:00 AM)98% (Dec 20, 5:00 AM)30.39 "Hg (Dec 20, 5:00 AM)
Low-39 °F (Dec 25, 8:00 AM)57% (Dec 25, 3:00 AM)29.53 "Hg (Dec 20, 9:00 AM)
Average-7 °F81%29.95 "Hg
* Reported Dec 12 9:00 AM — Dec 27 9:00 AM, Rae-Edzo, Weather by CustomWeather, © 2014

Note: Actual official high and low records may vary slightly from our data, if they occured in-between our weather recording intervals... More about our weather records

Advertising

Rae-Edzo weather history for previous 24 hours

 ConditionsComfort  
Time TempWeatherWind HumidityBarometerVisibility
9:00 AM
Dec 27
-21 °FExtremely cold.2 mph73%30.31 "HgN/A
8:00 AM-22 °FExtremely cold.1 mph73%30.31 "HgN/A
7:00 AM-23 °FExtremely cold.3 mph72%30.30 "HgN/A
6:00 AM-23 °FExtremely cold.2 mph72%30.30 "HgN/A
5:00 AM-22 °FExtremely cold.2 mph73%30.30 "HgN/A
2:00 AM-26 °FExtremely cold.3 mph62%30.28 "HgN/A
1:00 AM-28 °FExtremely cold.3 mph70%30.29 "HgN/A
12:00 AM-29 °FExtremely cold.3 mph69%30.31 "HgN/A
11:00 PM
Dec 26
-31 °FExtremely cold.2 mph68%30.31 "HgN/A
10:00 PM-30 °FExtremely cold.3 mph76%30.30 "HgN/A
9:00 PM-30 °FExtremely cold.2 mph67%30.31 "HgN/A
8:00 PM-31 °FExtremely cold.3 mph67%30.32 "HgN/A
7:00 PM-32 °FExtremely cold.3 mph66%30.32 "HgN/A
6:00 PM-33 °FExtremely cold.2 mph66%30.33 "HgN/A
5:00 PM-33 °FExtremely cold.2 mph66%30.34 "HgN/A
4:00 PM-33 °FExtremely cold.1 mph66%30.33 "HgN/A
3:00 PM-33 °FExtremely cold.2 mph66%30.33 "HgN/A
2:00 PM-32 °FExtremely cold.1 mph66%30.34 "HgN/A
1:00 PM-32 °FExtremely cold.2 mph67%30.33 "HgN/A
12:00 PM-32 °FExtremely cold.2 mph67%30.33 "HgN/A
Weather by CustomWeather, © 2014

See weather overviewHow to use our weather pages